This is the latest recevied weather packets stored in our database for station/object N7WLC. If no packets are shown the sender has not sent any weather packets the latest 10 day(s).
| Time | Temp. | Humidity | Pressure | Rain* | Wind** | Luminosity | Snow |
|---|---|---|---|---|---|---|---|
| 1777700904 | 12.22° C | 94% | 1013.5 hPa | 0 mm | 0 m/s | - | - |
| 1777699103 | 12.78° C | 93% | 1013.8 hPa | 0 mm | 0 m/s | - | - |
| 1777697303 | 12.78° C | 92% | 1013.8 hPa | 0 mm | 0 m/s | - | - |
| 1777695504 | 12.78° C | 91% | 1013.6 hPa | 0 mm | 0 m/s | - | - |
| 1777693704 | 13.33° C | 89% | 1013.2 hPa | 0 mm | 0 m/s | - | - |
| 1777691903 | 13.89° C | 86% | 1012.8 hPa | 0 mm | 0 m/s | - | - |
| 1777690104 | 15° C | 82% | 1012.6 hPa | 0 mm | 0 m/s | - | - |
| 1777688304 | 16.67° C | 75% | 1012.6 hPa | 0 mm | 0 m/s | - | - |
| 1777686503 | 17.78° C | 72% | 1012.4 hPa | 0 mm | 0 m/s | - | - |
| 1777684703 | 18.33° C | 70% | 1012.5 hPa | 0 mm | 0 m/s | - | - |
| 1777682904 | 18.89° C | 69% | 1012.5 hPa | 0 mm | 0 m/s | - | - |
| 1777681103 | 20° C | 65% | 1012.3 hPa | 0 mm | 0 m/s | - | - |
| 1777679304 | 20.56° C | 62% | 1012.4 hPa | 0 mm | 0.45 m/s, 249° | - | - |
| 1777677503 | 21.67° C | 59% | 1012.4 hPa | 0 mm | 0.89 m/s, 255° | - | - |
| 1777675704 | 22.22° C | 57% | 1012.5 hPa | 0 mm | 0.89 m/s, 342° | - | - |
| 1777673904 | 23.33° C | 54% | 1012.9 hPa | 0 mm | 0.45 m/s, 273° | - | - |
| 1777672104 | 25° C | 50% | 1013.2 hPa | 0 mm | 0.45 m/s, 259° | - | - |
| 1777670303 | 25° C | 51% | 1013.4 hPa | 0 mm | 0.45 m/s, 246° | - | - |
| 1777668504 | 23.89° C | 53% | 1013.6 hPa | 0 mm | 0.45 m/s, 239° | - | - |
| 1777666703 | 23.89° C | 53% | 1013.7 hPa | 0 mm | 0.89 m/s, 263° | - | - |
| 1777664904 | 24.44° C | 52% | 1013.9 hPa | 0 mm | 0.45 m/s, 234° | - | - |
| 1777663104 | 24.44° C | 52% | 1014.3 hPa | 0 mm | 0.45 m/s, 247° | - | - |
| 1777661304 | 23.89° C | 53% | 1014.5 hPa | 0 mm | 0.45 m/s, 229° | - | - |
| 1777659503 | 22.22° C | 58% | 1014.8 hPa | 0 mm | 0 m/s | - | - |
| 1777657704 | 21.67° C | 59% | 1015 hPa | 0 mm | 0.45 m/s, 252° | - | - |
* Rain latest hour (hover to see other rain measurements)
** Current wind speed in m/s (hover to see current wind gust speed)